User: anonymous   Login
Location: South Range
(44.4886°N, 65.7879°W)
Time: 20:07:23
(UTC-04:00)
Language:

Iridium 56 - Orbit

View from above orbital plane
View from above orbital plane
View from above satellite
View from above satellite

Ground track
Ground track

The orbit data is extracted from the following two-line orbital elements,

1 25170U 98010B   18022.33848962  .00000159  00000-0  49554-4 0  9995
2 25170  86.3958 258.8776 0001881  81.7967 278.3442 14.34221480 43179
Epoch (UTC): 22 January 2018 08:07:25
Eccentricity: 0.0001881
inclination: 86.3958°
perigee height: 776 km
apogee height: 779 km
right ascension of ascending node: 258.8776°
argument of perigee: 81.7967°
revolutions per day: 14.34221480
mean anomaly at epoch: 278.3442°
orbit number at epoch: 4317

The dashed part of the orbit path shows where the satellite is in the earth's shadow,  

DLR